Weather History for Howell, MI

Change the Weather History Date:

Monday, May 27, 2013

  Actual Average Record
Temperature  
Mean Temperature 52 °F -  
Max Temperature 61 °F 68 °F 82 °F (1998)
Min Temperature 43 °F 48 °F 39 °F (1999)
Degree Days  
Heating Degree Days 13    
Growing Degree Days 2 (Base 50)    
Moisture  
Dew Point 42 °F    
Average Humidity 72    
Maximum Humidity 99    
Minimum Humidity 38    
Precipitation  
Precipitation 0.00 in - - ()
Sea Level Pressure  
Sea Level Pressure 30.16 in    
Wind  
Wind Speed 6 mph (SE)    
Max Wind Speed 15 mph    
Max Gust Speed 21 mph    
Visibility 8 miles    
Events Rain    
Averages and records for this station are not official NWS values.
T = Trace of Precipitation, MM = Missing Value Source: NWS Daily Summary

Daily Weather History Graph

Daily Weather History Graph

Search for Another Location

Airport:

Trip Planner

Search our weather history database for the weather conditions in past years. The results will help you decide how hot, cold, wet, or windy it might be!

Date:

Astronomy

May. 27, 2013 Rise Set
Actual Time 6:03 AM EDT 9:03 PM EDT
Civil Twilight 5:29 AM EDT 9:37 PM EDT
Nautical Twilight 4:46 AM EDT 10:20 PM EDT
Astronomical Twilight 3:56 AM EDT 11:10 PM EDT
Moon 11:40 PM EDT (5/27) 8:40 AM EDT (5/27)
Length of Visible Light 16h 07m
Length of Day
14h 59m
Waning Gibbous, 91% of the Moon is Illuminated
May 27
Waning Gibbous
May 31
Last Quarter
Jun 8
New
Jun 16
First Quarter
Jun 23
Full

Hourly Weather History & Observations

Time (EDT) Temp. Windchill Dew Point Humidity Pressure Visibility Wind Dir Wind Speed Gust Speed Precip Events Conditions
12:14 AM 51.4 °F - 39.2 °F 63% 30.26 in 10.0 mi East 3.5 mph - N/A   Clear
12:35 AM 50.9 °F - 39.7 °F 66% 30.26 in 10.0 mi ESE 3.5 mph - N/A   Clear
12:55 AM 49.5 °F - 39.6 °F 69% 30.26 in 10.0 mi SE 4.6 mph - N/A   Clear
1:14 AM 48.7 °F - 39.4 °F 70% 30.25 in 10.0 mi ESE 4.6 mph - N/A   Clear
1:35 AM 47.5 °F - 39.0 °F 72% 30.25 in 10.0 mi East 3.5 mph - N/A   Clear
1:55 AM 48.4 °F - 39.0 °F 70% 30.25 in 10.0 mi Calm Calm - N/A   Clear
2:15 AM 48.0 °F - 39.2 °F 72% 30.25 in 10.0 mi Calm Calm - N/A   Clear
2:35 AM 48.7 °F - 38.3 °F 67% 30.25 in 10.0 mi Calm Calm - N/A   Clear
2:55 AM 48.2 °F - 37.6 °F 67% 30.25 in 10.0 mi Calm Calm - N/A   Clear
3:15 AM 47.3 °F - 36.5 °F 66% 30.24 in 10.0 mi SE 3.5 mph - N/A   Clear
3:35 AM 46.9 °F - 36.5 °F 67% 30.23 in 10.0 mi Calm Calm - N/A   Clear
3:55 AM 46.0 °F - 36.5 °F 69% 30.23 in 10.0 mi Calm Calm - N/A   Clear
4:15 AM 45.5 °F - 36.3 °F 70% 30.23 in 10.0 mi Calm Calm - N/A   Clear
4:35 AM 44.4 °F - 35.8 °F 72% 30.23 in 10.0 mi Calm Calm - N/A   Clear
4:54 AM 44.6 °F - 35.8 °F 71% 30.23 in 10.0 mi Calm Calm - N/A   Clear
5:15 AM 44.1 °F 42.5 °F 35.8 °F 73% 30.22 in 10.0 mi East 3.5 mph - N/A   Clear
5:35 AM 43.9 °F 42.3 °F 34.7 °F 70% 30.22 in 10.0 mi East 3.5 mph - N/A   Clear
5:54 AM 44.8 °F - 33.1 °F 64% 30.22 in 10.0 mi Calm Calm - N/A   Clear
6:15 AM 44.1 °F - 32.9 °F 65% 30.23 in 10.0 mi Calm Calm - N/A   Clear
6:35 AM 45.1 °F 43.7 °F 33.8 °F 65% 30.23 in 10.0 mi ESE 3.5 mph - N/A   Clear
6:54 AM 45.0 °F - 34.7 °F 67% 30.23 in 10.0 mi Calm Calm - N/A   Clear
7:15 AM 46.2 °F 44.1 °F 35.6 °F 66% 30.23 in 10.0 mi ESE 4.6 mph - N/A   Clear
7:35 AM 48.4 °F - 35.1 °F 60% 30.23 in 10.0 mi ESE 4.6 mph - N/A   Clear
7:54 AM 50.7 °F - 34.3 °F 53% 30.24 in 10.0 mi SE 5.8 mph - N/A   Clear
8:15 AM 53.1 °F - 31.8 °F 44% 30.22 in 10.0 mi ESE 8.1 mph - N/A   Clear
8:35 AM 55.6 °F - 32.2 °F 41% 30.22 in 10.0 mi ESE 6.9 mph - N/A   Clear
8:55 AM 57.9 °F - 32.7 °F 39% 30.23 in 10.0 mi SE 10.4 mph - N/A   Clear
9:15 AM 60.3 °F - 34.2 °F 38% 30.23 in 10.0 mi SE 11.5 mph - N/A   Clear
9:35 AM 59.9 °F - 35.4 °F 40% 30.23 in 10.0 mi SE 10.4 mph - N/A   Clear
9:55 AM 59.9 °F - 36.9 °F 42% 30.22 in 10.0 mi SE 9.2 mph - N/A   Clear
10:15 AM 59.9 °F - 37.2 °F 43% 30.22 in 10.0 mi SSE 10.4 mph - N/A   Clear
10:35 AM 60.6 °F - 37.6 °F 42% 30.21 in 10.0 mi SSE 11.5 mph - N/A   Clear
10:55 AM 61.0 °F - 38.7 °F 44% 30.21 in 10.0 mi SE 10.4 mph - N/A   Clear
11:15 AM 61.7 °F - 37.8 °F 41% 30.20 in 10.0 mi SE 15.0 mph 18.4 mph N/A   Clear
11:34 AM 61.9 °F - 37.0 °F 40% 30.19 in 10.0 mi SE 13.8 mph 18.4 mph N/A   Scattered Clouds
11:55 AM 61.5 °F - 38.5 °F 43% 30.18 in 10.0 mi SSE 10.4 mph - N/A   Mostly Cloudy
12:15 PM 60.8 °F - 41.0 °F 48% 30.18 in 10.0 mi SSE 10.4 mph - N/A   Overcast
12:34 PM 60.8 °F - 42.3 °F 50% 30.17 in 10.0 mi SSE 12.7 mph - N/A   Overcast
12:55 PM 60.3 °F - 42.4 °F 52% 30.16 in 10.0 mi SE 13.8 mph - N/A   Mostly Cloudy
1:15 PM 60.4 °F - 44.4 °F 56% 30.16 in 10.0 mi SSE 9.2 mph - N/A Rain Light Rain
1:34 PM 59.9 °F - 46.4 °F 61% 30.16 in 10.0 mi SSE 12.7 mph 20.7 mph N/A   Overcast
1:55 PM 59.0 °F - 45.7 °F 61% 30.17 in 10.0 mi South 10.4 mph - N/A   Overcast
2:15 PM 57.7 °F - 44.6 °F 62% 30.17 in 10.0 mi SSE 6.9 mph - N/A Rain Light Rain
2:34 PM 56.7 °F - 46.4 °F 69% 30.18 in 10.0 mi South 9.2 mph - N/A Rain Light Rain
2:55 PM 54.5 °F - 46.9 °F 76% 30.18 in 10.0 mi South 9.2 mph - N/A Rain Light Rain
3:15 PM 53.2 °F - 47.7 °F 81% 30.17 in 10.0 mi SE 11.5 mph - N/A Rain Light Rain
3:35 PM 52.7 °F - 47.7 °F 83% 30.16 in 10.0 mi SE 8.1 mph - N/A Rain Light Rain
3:55 PM 52.5 °F - 47.1 °F 82% 30.15 in 10.0 mi SE 11.5 mph - N/A Rain Light Rain
4:15 PM 52.3 °F - 47.5 °F 84% 30.14 in 10.0 mi ESE 11.5 mph - N/A   Overcast
4:35 PM 52.7 °F - 48.0 °F 84% 30.13 in 10.0 mi ESE 11.5 mph - N/A   Overcast
4:55 PM 52.3 °F - 47.7 °F 84% 30.12 in 7.0 mi East 11.5 mph 17.3 mph N/A   Overcast
5:15 PM 51.8 °F - 48.9 °F 90% 30.11 in 5.0 mi East 9.2 mph - N/A Rain Light Rain
5:35 PM 51.8 °F - 50.0 °F 94% 30.10 in 4.0 mi East 8.1 mph - N/A Rain Light Rain
5:55 PM 51.8 °F - 50.5 °F 95% 30.09 in 5.0 mi East 8.1 mph - N/A Rain Light Rain
6:14 PM 51.8 °F - 50.9 °F 97% 30.08 in 4.0 mi ESE 15.0 mph - N/A Rain Light Rain
6:35 PM 52.3 °F - 51.3 °F 96% 30.07 in 4.0 mi ESE 11.5 mph - N/A Rain Light Rain
6:55 PM 52.2 °F - 51.1 °F 96% 30.06 in 4.0 mi ESE 9.2 mph - N/A   Overcast
7:14 PM 52.0 °F - 50.9 °F 96% 30.06 in 4.0 mi ESE 8.1 mph - N/A   Overcast
7:35 PM 51.8 °F - 50.9 °F 97% 30.05 in 3.0 mi ESE 12.7 mph - N/A Rain Light Rain
7:55 PM 51.4 °F - 50.5 °F 97% 30.05 in 5.0 mi ESE 11.5 mph - N/A Rain Light Rain
8:14 PM 51.3 °F - 50.4 °F 97% 30.05 in 2.0 mi ESE 9.2 mph - N/A Rain Light Rain
8:35 PM 51.1 °F - 50.4 °F 97% 30.05 in 3.0 mi ESE 10.4 mph 16.1 mph N/A   Drizzle
8:55 PM 50.9 °F - 50.4 °F 98% 30.04 in 3.0 mi ESE 8.1 mph - N/A Rain Light Rain
9:15 PM 50.9 °F - 50.4 °F 98% 30.03 in 3.0 mi ESE 8.1 mph - N/A Rain Rain
9:35 PM 51.1 °F - 50.5 °F 98% 30.03 in 3.0 mi ESE 8.1 mph - N/A   Light Drizzle
9:55 PM 51.3 °F - 50.9 °F 99% 30.03 in 3.0 mi ESE 10.4 mph - N/A Rain Light Rain
10:15 PM 51.3 °F - 50.9 °F 99% 30.03 in 3.0 mi ESE 9.2 mph - N/A Rain Light Rain
10:35 PM 51.3 °F - 50.9 °F 99% 30.03 in 3.0 mi ESE 13.8 mph 17.3 mph N/A Rain Light Rain
10:55 PM 51.4 °F - 51.1 °F 99% 30.02 in 3.0 mi ESE 13.8 mph - N/A Rain Light Rain
11:15 PM 51.4 °F - 51.1 °F 99% 30.01 in 5.0 mi ESE 11.5 mph 17.3 mph N/A Rain Rain
11:35 PM 51.8 °F - 51.3 °F 98% 30.01 in 5.0 mi ESE 10.4 mph 17.3 mph N/A Rain Rain
11:54 PM 51.8 °F - 51.4 °F 99% 30.00 in 7.0 mi ESE 13.8 mph 18.4 mph N/A Rain Light Rain